[Date Prev][Date Next][Thread Prev][Thread Next] - [Date Index][Thread Index][Author Index]

2 LIne ISS Keps 6-10



ISS
1 25544U 98067A   01161.14871528  .00035267  00000-0  40530-3 0   657
2 25544  51.5701 124.2241 0017211 141.9953  37.7987 15.61504340145977


----
Via the sarex mailing list at AMSAT.ORG courtesy of AMSAT-NA.
To unsubscribe, send "unsubscribe sarex" to Majordomo@amsat.org



AMSAT Top AMSAT Home